Location: Devore Heights
(34.2372°N, 117.4156°W)
Time: 02:32:08
(UTC+00:00)

A-11 Canister half - Pass Details

Date: 18 September 2024
Orbit: 1515 x 1684 km, 47.2° (Epoch: 06 October)

Event Time Altitude Azimuth Distance (km) Brightness Sun altitude
Rises 05:40:43 0° 298° (WNW) 4,681 12.3 -43.9°
Reaches altitude 10° 05:44:03 10° 306° (NW) 3,687 11.6 -44.4°
Enters shadow 05:51:30 40° 357° (N) 2,108 9.8 -45.5°
